Weather in Rodniki

Russia / Stavropol Krai     45°37′26″N   42°34′59″E
temp.,
°C
wind,
m/s
gust,
m/s
humid.,
%
clouds,
%
prec.,
mm/h
press.,
hPa
HPBL,
m
16 may, mon
mon1600:00+12w511872 0.0 1014260
03:00+11w511930 0.0 1014263
06:00+11w510890 0.0 1015321
09:00+16w710665 0.0 10151058
12:00+19w8115053 0.0 10142302
15:00+18wnw10135763 0.1 10151873
18:00+16nw610661 0.1 1016900
21:00+11w45831 0.1 101881
17 may, tue
tue1700:00+10wsw48885 0.0 1018142
03:00+9wsw49865 0.0 1017154
06:00+11wsw497997 0.0 1017229
09:00+15w61066100 0.2 1016885
12:00+17w81059100 0.4 10151771
15:00+14w6107894 1.4 1014646
18:00+14wnw5981100 0.8 1014674
21:00+11wsw46909 1.4 1015114
18 may, wed
wed1800:00+10wsw510939 0.1 1015214
03:00+9sw4109284 0.2 1014219
06:00+11sw4986100 0.1 1013284
09:00+13wsw3879100 0.1 1013457
12:00+15w3569100 0.0 1012532
15:00+14nw6682100 0.5 1011657
18:00+11nw3997100 5.0 1012612
21:00+11n1298100 12.8 1013132
19 may, thu
thu1900:00+10e3398100 8.9 1012181
03:00+10wsw1298100 16.1 1013108
06:00+9n4697100 6.7 1016318
09:00+9wnw5789100 8.3 1019483
12:00+11w7881100 0.4 1020830
15:00+14w896691 0.9 10201529
18:00+12wnw69795 0.8 1020885
21:00+9w511895 0.9 1022233
20 may, fri
fri2000:00+8wsw5119239 0.1 1022240
03:00+8wsw61393100 0.2 1021319
06:00+9wsw71587100 0.1 1021477
09:00+11w81281100 0.3 1021912
12:00+11wsw91287100 0.8 1021844
15:00+11w71293100 1.6 1020725
18:00+12w8129097 0.6 1020836
21:00+10w5109491 1.9 1020349